Location: Breungeshain
(50.5000°N, 9.2000°E)
Time: 09:47:20
(UTC+00:00)

ISS - Pass Details

Date: 21 May 2017
Orbit: 402 x 409 km, 51.6° (Epoch: 24 May)

Event Time Altitude Azimuth Distance (km) Brightness Sun altitude
Exits shadow 22:34:11 22° 89° (E) 947 -2.1 -18.4°
Drops below altitude 10° 22:35:33 10° 79° (E) 1,468 -1.0 -18.5°
Sets 22:37:41 0° 74° (ENE) 2,330 0.1 -18.5°
